Location: Unspecified
(41.5000°N, 0.0000°E)
Time: 22:29:19
(UTC+00:00)

Explorer 11/Cluster Stage 4 - All Passes

Search period start: 15 June 2019 00:00
Search period end: 25 June 2019 00:00
Orbit: 467 x 1260 km, 28.8° (Epoch: 14 June)

Date Brightness Start Highest point End Pass type
(mag) Time Alt. Az. Time Alt. Az. Time Alt. Az.
15 Jun - 16:10:01 10° S 16:11:45 11° SSE 16:13:36 10° SE daylight
15 Jun - 17:54:43 10° SW 17:59:21 24° SSE 18:04:43 10° ESE daylight
15 Jun - 19:42:02 10° WSW 19:47:28 27° S 19:53:42 10° SE daylight
15 Jun - 21:30:49 10° WSW 21:35:46 19° SSW 21:41:07 10° SSE visible
16 Jun - 15:59:03 10° S 16:01:00 12° SSE 16:03:05 10° SE daylight
16 Jun - 17:44:10 10° SW 17:48:36 24° S 17:53:47 10° ESE daylight
16 Jun - 19:31:34 10° WSW 19:36:41 26° S 19:42:36 10° SE daylight
16 Jun - 21:20:33 10° WSW 21:24:56 17° SSW 21:29:40 10° SSE visible
17 Jun - 15:48:13 10° S 15:50:16 12° SSE 15:52:30 10° SE daylight
17 Jun - 17:33:40 10° SW 17:37:52 23° S 17:42:49 10° ESE daylight
17 Jun - 19:21:08 10° WSW 19:25:55 23° S 19:31:27 10° SE daylight
17 Jun - 21:10:27 10° SW 21:14:07 15° SSW 21:18:01 10° S visible
18 Jun - 15:37:29 10° S 15:39:35 13° SSE 15:41:52 10° SE daylight
18 Jun - 17:23:11 10° SW 17:27:11 22° S 17:31:51 10° SE daylight
18 Jun - 19:10:47 10° SW 19:15:11 21° S 19:20:14 10° SE daylight
18 Jun - 21:00:41 10° SW 21:03:19 12° SSW 21:06:04 10° S visible
19 Jun - 15:26:48 10° S 15:28:55 13° SSE 15:31:11 10° SE daylight
19 Jun - 17:12:45 10° SW 17:16:30 21° S 17:20:52 10° SE daylight
19 Jun - 19:00:31 10° SW 19:04:28 19° S 19:08:58 10° SSE daylight
20 Jun - 15:16:11 10° SSW 15:18:15 13° SSE 15:20:30 10° SE daylight
20 Jun - 17:02:23 10° SW 17:05:51 20° S 17:09:51 10° SE daylight
20 Jun - 18:50:20 10° SW 18:53:46 16° S 18:57:36 10° SSE daylight
21 Jun - 15:05:36 10° SSW 15:07:37 13° SSE 15:09:47 10° SE daylight
21 Jun - 16:52:02 10° SW 16:55:12 18° S 16:58:50 10° SE daylight
21 Jun - 18:40:20 10° SW 18:43:04 14° SSW 18:46:06 10° SSE daylight
22 Jun - 14:55:03 10° SSW 14:57:00 13° SSE 14:59:04 10° SE daylight
22 Jun - 16:41:45 10° SW 16:44:35 16° S 16:47:47 10° SE daylight
22 Jun - 18:30:40 10° SSW 18:32:24 11° SSW 18:34:15 10° S daylight
23 Jun - 14:44:33 10° SSW 14:46:24 13° S 14:48:22 10° SE daylight
23 Jun - 16:31:32 10° SW 16:33:59 15° S 16:36:40 10° SSE daylight
24 Jun - 14:34:04 10° SSW 14:35:48 13° S 14:37:38 10° SE daylight
24 Jun - 16:21:26 10° SSW 16:23:23 13° S 16:25:29 10° SSE daylight
